Regional Weather Roundup
Issued by NWS

Home | Current Version | Previous Version | Graphics & Text | Print | Product List | Glossary Off
Versions: 1 2 3 4 5 6 7 8 9 10 11 12 13 14 15 16 17 18 19 20 21 22 23 24 25 26 27 28 29 30 31 32 33 34 35 36 37 38 39 40 41 42 43 44 45 46 47 48 49 50

000
ASUS43 KTOP 180508
RWRKS

WEATHER ROUNDUP FOR KANSAS
NATIONAL WEATHER SERVICE GOODLAND KS
1200 AM CDT FRI APR 18 2014

NOTE:  "FAIR" INDICATES FEW OR NO CLOUDS BELOW 12,000 FEET WITH NO
SIGNIFICANT WEATHER AND/OR OBSTRUCTIONS TO VISIBILITY.

KSZ001>006-013>018-027>032-041>047-180600-
NORTHWEST KANSAS

CITY           SKY/WX    TMP DP  RH WIND       PRES   REMARKS
GOODLAND       CLEAR     40  37  89 S20       30.14F WCI  30
HAYS           CLEAR     39  28  65 S6        30.23S
HILL CITY      CLEAR     43  34  70 S7        30.21S
RUSSELL        CLEAR     39  29  67 S8        30.23R
$$

KSZ061>065-074>080-084>089-180600-
SOUTHWEST KANSAS

CITY           SKY/WX    TMP DP  RH WIND       PRES   REMARKS
DODGE CITY     PTCLDY    40  37  89 S8        30.24S FOG
ELKHART          N/A     36  29  76 SE10        N/A  WCI  28
GARDEN CITY    PTCLDY    40  37  89 S7        30.22S FOG
GREAT BEND     CLEAR     41  30  65 S8        30.25R
LIBERAL        CLEAR     41  36  81 SE8       30.25S
PRATT          CLEAR     36  34  93 S6        30.27S FOG
$$

KSZ066>073-081>083-090>101-180600-
SOUTHEAST KANSAS

CITY           SKY/WX    TMP DP  RH WIND       PRES   REMARKS
CHANUTE        CLEAR     38  35  89 CALM      30.29R FOG
COFFEYVILLE    CLEAR     41  36  82 N6        30.29R
HUTCHINSON     CLEAR     38  32  79 SE5       30.27S
MEDICINE LODGE   N/A     40  35  83 CALM      30.27F
NEWTON         CLEAR     37  28  70 S6        30.30R
PARSONS        CLEAR     38  35  89 NE3       30.29R FOG
WICHITA INTL   CLEAR     38  33  82 CALM      30.28R HAZE
WICHITA JABRA  CLEAR     39  34  82 CALM      30.28R HAZE
WICHITA MCCONL CLEAR     42  38  87 CALM      30.28S
WINFIELD       CLEAR     36  32  85 CALM      30.29R FOG
$$

KSZ007>012-019>026-033>040-048>060-102>105-180600-
NORTHEAST KANSAS

CITY           SKY/WX    TMP DP  RH WIND       PRES   REMARKS
CONCORDIA      PTCLDY    44  30  57 S12       30.25R
EMPORIA        CLEAR     39  32  76 SE3       30.27S HAZE
LAWRENCE       CLEAR     34  31  88 CALM      30.29S
MANHATTAN      CLOUDY    39  31  72 CALM      30.28R HAZE
OLATHE IND     CLEAR     37  32  82 CALM      30.28S
OLATHE EXE     CLEAR     38  33  82 CALM      30.27S
SALINA         CLEAR     39  29  67 S6        30.27S
TOPEKA BILLARD CLEAR     40  33  76 CALM      30.29S HAZE
TOPEKA FORBES  CLEAR     36  32  85 CALM      30.28S
$$



USA.gov is the U.S. government's official web portal to all federal, state and local government web resources and services.